Flag for Germany Weather past 2 weeks in Uelzen, Lower Saxony, Germany

Now
66 °F

Sprinkles. Broken clouds.


Feels Like: 66 °F
Forecast: 54 / 64 °F
Wind: 25 mph from West

Location: Fassberg

Current Time: Jul 28, 2015 at 3:47:06 PM

Latest Report: Jul 28, 2015 at 2:20 PM


Visibility: N/A

Pressure: 29.59 "Hg

Humidity: 60%

Dew point: 52 °F

Location of UelzenLocation

Historic Weather in Uelzen — Graph

°F

Uelzen temperature yesterday

Maximum temperature yesterday: 66 °F (at 2:20 PM)
Minimum temperature yesterday: 54 °F (at 5:20 AM)
Average temperature yesterday: 59 °F

Past Weeks' High & Low Weather Summary

 TemperatureHumidityPressure
High90 °F (Jul 17, 4:20 PM)100% (Jul 13, 11:20 PM)30.12 "Hg (Jul 13, 11:20 PM)
Low45 °F (Jul 24, 5:20 AM)33% (Jul 17, 4:20 PM)29.45 "Hg (Jul 25, 2:20 PM)
Average64 °F78%29.87 "Hg
* Reported Jul 13 2:20 PM — Jul 28 2:20 PM, Uelzen, Weather by CustomWeather, © 2015

Note: Actual official high and low records may vary slightly from our data, if they occured in-between our weather recording intervals... More about our weather records

Advertising

Uelzen weather history for previous 24 hours

 ConditionsComfort  
Time TempWeatherWind HumidityBarometerVisibility
2:20 PM
Tue, Jul 28
66 °FSprinkles. Broken clouds.25 mph60%29.59 "HgN/A
1:20 PM64 °FBroken clouds.17 mph68%29.59 "HgN/A
12:20 PM63 °FPartly sunny.18 mph73%29.59 "HgN/A
11:20 AM61 °FBroken clouds.16 mph83%29.59 "HgN/A
10:20 AM57 °FSprinkles. Partly sunny.20 mph88%29.59 "Hg4 mi
9:20 AM57 °FPartly sunny.18 mph82%29.56 "HgN/A
8:20 AM57 °FPartly sunny.14 mph82%29.56 "HgN/A
7:20 AM55 °FPartly sunny.16 mph88%29.53 "HgN/A
6:20 AM57 °FPassing clouds.13 mph82%29.53 "HgN/A
5:20 AM57 °FPassing clouds.12 mph88%29.53 "HgN/A
4:20 AM57 °FPassing clouds.13 mph88%29.53 "HgN/A
3:20 AM57 °FPassing clouds.13 mph94%29.53 "HgN/A
2:20 AM59 °FPassing clouds.13 mph88%29.53 "HgN/A
1:20 AM59 °FPassing clouds.12 mph94%29.53 "HgN/A
12:20 AM59 °FPassing clouds.10 mph94%29.53 "HgN/A
11:20 PM
Mon, Jul 27
57 °FPartly cloudy.9 mph100%29.53 "HgN/A
10:20 PM59 °FBroken clouds.10 mph94%29.56 "HgN/A
9:20 PM61 °FSprinkles. Broken clouds.15 mph88%29.56 "Hg5 mi
8:20 PM61 °FSprinkles. Partly sunny.15 mph88%29.53 "HgN/A
7:20 PM63 °FBroken clouds.16 mph88%29.50 "HgN/A
6:20 PM61 °FSprinkles. Scattered clouds.14 mph94%29.50 "HgN/A
5:20 PM63 °FScattered showers. Broken clouds.9 mph94%29.50 "HgN/A
5:00 PM63 °FScattered showers. Partly sunny.8 mph94%29.50 "HgN/A
4:50 PM61 °FSprinkles. Broken clouds.8 mph94%29.50 "Hg5 mi
4:20 PM63 °FRain showers. Broken clouds.10 mph88%29.53 "Hg5 mi
3:57 PM63 °FSprinkles. Broken clouds.14 mph88%29.50 "Hg4 mi
3:20 PM66 °FSprinkles. Broken clouds.8 mph68%29.50 "HgN/A
Weather by CustomWeather, © 2015

See weather overviewHow to use our weather pages